"datetime","temp","dp","rain_mm","uv","mb"
"2024-01-17 00:00:00","-1.8","-2.9",0.0,0.0,998.2
"2024-01-17 00:01:00","-1.8","-2.9",0.0,0.0,998.2
"2024-01-17 00:02:00","-1.8","-2.9",0.0,0.0,998.1
"2024-01-17 00:03:00","-1.8","-2.9",0.0,0.0,998.1
"2024-01-17 00:04:00","-1.7","-2.8",0.0,0.0,998.0
"2024-01-17 00:05:00","-1.8","-2.9",0.0,0.0,998.0
"2024-01-17 00:06:00","-1.7","-2.8",0.0,0.0,998.0
"2024-01-17 00:07:00","-1.7","-2.8",0.0,0.0,998.0
"2024-01-17 00:08:00","-1.7","-2.8",0.0,0.0,998.0
"2024-01-17 00:09:00","-1.7","-2.8",0.0,0.0,998.0
"2024-01-17 00:10:00","-1.7","-2.8",0.0,0.0,998.0
"2024-01-17 00:11:00","-1.7","-2.8",0.0,0.0,998.0
"2024-01-17 00:12:00","-1.7","-2.8",0.0,0.0,998.0
"2024-01-17 00:13:00","-1.7","-2.8",0.0,0.0,998.0
"2024-01-17 00:14:00","-1.7","-2.8",0.0,0.0,998.0
"2024-01-17 00:15:00","-1.7","-2.8",0.0,0.0,998.0
"2024-01-17 00:16:00","-1.7","-2.8",0.0,0.0,998.1
"2024-01-17 00:17:00","-1.7","-2.8",0.0,0.0,998.1
"2024-01-17 00:18:00","-1.7","-2.8",0.0,0.0,998.1
"2024-01-17 00:19:00","-1.7","-2.8",0.0,0.0,998.1
"2024-01-17 00:20:00","-1.7","-2.8",0.0,0.0,998.1
"2024-01-17 00:21:00","-1.6","-2.7",0.0,0.0,998.1
"2024-01-17 00:22:00","-1.7","-2.8",0.0,0.0,998.1
"2024-01-17 00:23:00","-1.7","-2.8",0.0,0.0,998.0
"2024-01-17 00:24:00","-1.6","-2.7",0.0,0.0,998.0
"2024-01-17 00:25:00","-1.6","-2.7",0.0,0.0,998.1
"2024-01-17 00:26:00","-1.6","-2.7",0.0,0.0,998.1
"2024-01-17 00:27:00","-1.6","-2.7",0.0,0.0,998.1
"2024-01-17 00:28:00","-1.6","-2.7",0.0,0.0,998.1
"2024-01-17 00:29:00","-1.6","-2.7",0.0,0.0,998.1
"2024-01-17 00:30:00","-1.6","-2.7",0.0,0.0,998.0
"2024-01-17 00:31:00","-1.6","-2.7",0.0,0.0,998.0
"2024-01-17 00:32:00","-1.6","-2.7",0.0,0.0,998.0
"2024-01-17 00:33:00","-1.6","-2.7",0.0,0.0,998.0
"2024-01-17 00:34:00","-1.5","-2.6",0.0,0.0,997.9
"2024-01-17 00:35:00","-1.5","-2.6",0.0,0.0,997.9
"2024-01-17 00:36:00","-1.5","-2.6",0.0,0.0,997.8
"2024-01-17 00:37:00","-1.5","-2.6",0.0,0.0,997.8
"2024-01-17 00:38:00","-1.4","-2.5",0.0,0.0,997.8
"2024-01-17 00:39:00","-1.5","-2.6",0.0,0.0,997.7
"2024-01-17 00:40:00","-1.5","-2.6",0.0,0.0,997.7
"2024-01-17 00:41:00","-1.4","-2.5",0.0,0.0,997.7
"2024-01-17 00:42:00","-1.5","-2.6",0.0,0.0,997.6
"2024-01-17 00:43:00","-1.4","-2.5",0.0,0.0,997.7
"2024-01-17 00:44:00","-1.4","-2.5",0.0,0.0,997.6
"2024-01-17 00:45:00","-1.5","-2.6",0.0,0.0,997.6
"2024-01-17 00:46:00","-1.4","-2.5",0.0,0.0,997.6
"2024-01-17 00:47:00","-1.4","-2.5",0.0,0.0,997.6
"2024-01-17 00:48:00","-1.4","-2.5",0.0,0.0,997.6
"2024-01-17 00:49:00","-1.4","-2.5",0.0,0.0,997.5
"2024-01-17 00:50:00","-1.4","-2.5",0.0,0.0,997.5
"2024-01-17 00:51:00","-1.4","-2.5",0.0,0.0,997.5
"2024-01-17 00:52:00","-1.4","-2.5",0.0,0.0,997.4
"2024-01-17 00:53:00","-1.4","-2.5",0.0,0.0,997.4
"2024-01-17 00:54:00","-1.4","-2.5",0.0,0.0,997.4
"2024-01-17 00:55:00","-1.4","-2.5",0.0,0.0,997.4
"2024-01-17 00:56:00","-1.4","-2.5",0.0,0.0,997.3
"2024-01-17 00:57:00","-1.4","-2.5",0.0,0.0,997.4
"2024-01-17 00:58:00","-1.4","-2.5",0.0,0.0,997.3
"2024-01-17 00:59:00","-1.3","-2.4",0.0,0.0,997.3
"2024-01-17 01:00:00","-1.4","-2.5",0.0,0.0,997.3
"2024-01-17 01:01:00","-1.3","-2.4",0.0,0.0,997.3
"2024-01-17 01:02:00","-1.3","-2.4",0.0,0.0,997.3
"2024-01-17 01:03:00","-1.3","-2.4",0.0,0.0,997.2
"2024-01-17 01:04:00","-1.3","-2.4",0.0,0.0,997.2
"2024-01-17 01:05:00","-1.3","-2.4",0.0,0.0,997.2
"2024-01-17 01:06:00","-1.3","-2.4",0.0,0.0,997.2
"2024-01-17 01:07:00","-1.3","-2.4",0.0,0.0,997.1
"2024-01-17 01:08:00","-1.3","-2.4",0.0,0.0,997.1
"2024-01-17 01:09:00","-1.3","-2.4",0.0,0.0,997.1
"2024-01-17 01:10:00","-1.3","-2.4",0.0,0.0,997.1
"2024-01-17 01:11:00","-1.3","-2.4",0.0,0.0,997.0
"2024-01-17 01:12:00","-1.3","-2.4",0.0,0.0,997.0
"2024-01-17 01:13:00","-1.3","-2.4",0.0,0.0,997.0
"2024-01-17 01:14:00","-1.3","-2.4",0.0,0.0,996.9
"2024-01-17 01:15:00","-1.3","-2.4",0.0,0.0,996.9
"2024-01-17 01:16:00","-1.3","-2.4",0.0,0.0,996.9
"2024-01-17 01:17:00","-1.3","-2.4",0.0,0.0,996.9
"2024-01-17 01:18:00","-1.3","-2.4",0.0,0.0,996.8
"2024-01-17 01:19:00","-1.2","-2.3",0.0,0.0,996.8
"2024-01-17 01:20:00","-1.3","-2.4",0.0,0.0,996.8
"2024-01-17 01:21:00","-1.3","-2.4",0.0,0.0,996.7
"2024-01-17 01:22:00","-1.2","-2.3",0.0,0.0,996.6
"2024-01-17 01:23:00","-1.3","-2.4",0.0,0.0,996.6
"2024-01-17 01:24:00","-1.2","-2.3",0.0,0.0,996.5
"2024-01-17 01:25:00","-1.2","-2.3",0.0,0.0,996.5
"2024-01-17 01:26:00","-1.2","-2.3",0.0,0.0,996.5
"2024-01-17 01:27:00","-1.2","-2.3",0.0,0.0,996.5
"2024-01-17 01:28:00","-1.2","-2.3",0.0,0.0,996.4
"2024-01-17 01:29:00","-1.2","-2.3",0.0,0.0,996.5
"2024-01-17 01:30:00","-1.2","-2.3",0.0,0.0,996.4
"2024-01-17 01:31:00","-1.2","-2.3",0.0,0.0,996.4
"2024-01-17 01:32:00","-1.2","-2.3",0.0,0.0,996.3
"2024-01-17 01:33:00","-1.2","-2.3",0.0,0.0,996.4
"2024-01-17 01:34:00","-1.2","-2.3",0.0,0.0,996.4
"2024-01-17 01:35:00","-1.2","-2.3",0.0,0.0,996.4
"2024-01-17 01:36:00","-1.2","-2.3",0.0,0.0,996.4
"2024-01-17 01:37:00","-1.2","-2.3",0.0,0.0,996.4
"2024-01-17 01:38:00","-1.2","-2.3",0.0,0.0,996.3
"2024-01-17 01:39:00","-1.2","-2.3",0.0,0.0,996.3
"2024-01-17 01:40:00","-1.2","-2.3",0.0,0.0,996.3
"2024-01-17 01:41:00","-1.2","-2.3",0.0,0.0,996.3
"2024-01-17 01:42:00","-1.2","-2.3",0.0,0.0,996.3
"2024-01-17 01:43:00","-1.2","-2.3",0.0,0.0,996.3
"2024-01-17 01:44:00","-1.2","-2.3",0.0,0.0,996.2
"2024-01-17 01:45:00","-1.2","-2.3",0.0,0.0,996.2
"2024-01-17 01:46:00","-1.2","-2.3",0.0,0.0,996.2
"2024-01-17 01:47:00","-1.2","-2.3",0.0,0.0,996.2
"2024-01-17 01:48:00","-1.2","-2.3",0.0,0.0,996.1
"2024-01-17 01:49:00","-1.2","-2.3",0.0,0.0,996.1
"2024-01-17 01:50:00","-1.2","-2.3",0.0,0.0,996.1
"2024-01-17 01:51:00","-1.2","-2.3",0.0,0.0,996.1
"2024-01-17 01:52:00","-1.2","-2.3",0.0,0.0,996.1
"2024-01-17 01:53:00","-1.2","-2.3",0.0,0.0,996.1
"2024-01-17 01:54:00","-1.2","-2.3",0.0,0.0,996.0
"2024-01-17 01:55:00","-1.2","-2.3",0.0,0.0,996.0
"2024-01-17 01:56:00","-1.2","-2.3",0.0,0.0,996.0
"2024-01-17 01:57:00","-1.2","-2.3",0.0,0.0,996.1
"2024-01-17 01:58:00","-1.2","-2.3",0.0,0.0,996.0
"2024-01-17 01:59:00","-1.2","-2.3",0.0,0.0,996.0
"2024-01-17 02:00:00","-1.2","-2.3",0.0,0.0,996.0
"2024-01-17 02:01:00","-1.2","-2.3",0.0,0.0,995.9
"2024-01-17 02:02:00","-1.2","-2.3",0.0,0.0,995.9
"2024-01-17 02:03:00","-1.2","-2.3",0.0,0.0,995.8
"2024-01-17 02:04:00","-1.2","-2.3",0.0,0.0,995.8
"2024-01-17 02:05:00","-1.2","-2.3",0.0,0.0,995.8
"2024-01-17 02:06:00","-1.2","-2.3",0.0,0.0,995.8
"2024-01-17 02:07:00","-1.2","-2.3",0.0,0.0,995.8
"2024-01-17 02:08:00","-1.2","-2.3",0.0,0.0,995.8
"2024-01-17 02:09:00","-1.2","-2.3",0.0,0.0,995.8
"2024-01-17 02:10:00","-1.2","-2.3",0.0,0.0,995.8
"2024-01-17 02:11:00","-1.2","-2.3",0.0,0.0,995.8
"2024-01-17 02:12:00","-1.2","-2.3",0.0,0.0,995.7
"2024-01-17 02:13:00","-1.2","-2.3",0.0,0.0,995.7
"2024-01-17 02:14:00","-1.2","-2.3",0.0,0.0,995.6
"2024-01-17 02:15:00","-1.2","-2.3",0.0,0.0,995.6
"2024-01-17 02:16:00","-1.2","-2.3",0.0,0.0,995.6
"2024-01-17 02:17:00","-1.2","-2.3",0.0,0.0,995.6
"2024-01-17 02:18:00","-1.2","-2.3",0.0,0.0,995.6
"2024-01-17 02:19:00","-1.2","-2.3",0.0,0.0,995.6
"2024-01-17 02:20:00","-1.2","-2.3",0.0,0.0,995.6
"2024-01-17 02:21:00","-1.2","-2.3",0.0,0.0,995.5
"2024-01-17 02:22:00","-1.2","-2.3",0.0,0.0,995.5
"2024-01-17 02:23:00","-1.2","-2.3",0.0,0.0,995.5
"2024-01-17 02:24:00","-1.2","-2.3",0.0,0.0,995.5
"2024-01-17 02:25:00","-1.2","-2.3",0.0,0.0,995.5
"2024-01-17 02:26:00","-1.2","-2.3",0.0,0.0,995.5
"2024-01-17 02:27:00","-1.2","-2.3",0.0,0.0,995.5
"2024-01-17 02:28:00","-1.2","-2.3",0.0,0.0,995.5
"2024-01-17 02:29:00","-1.2","-2.3",0.0,0.0,995.5
"2024-01-17 02:30:00","-1.2","-2.3",0.0,0.0,995.4
"2024-01-17 02:31:00","-1.2","-2.3",0.0,0.0,995.4
"2024-01-17 02:32:00","-1.2","-2.3",0.0,0.0,995.4
"2024-01-17 02:33:00","-1.2","-2.3",0.0,0.0,995.3
"2024-01-17 02:34:00","-1.2","-2.3",0.0,0.0,995.3
"2024-01-17 02:35:00","-1.2","-2.3",0.0,0.0,995.4
"2024-01-17 02:36:00","-1.2","-2.3",0.0,0.0,995.4
"2024-01-17 02:37:00","-1.2","-2.3",0.0,0.0,995.3
"2024-01-17 02:38:00","-1.2","-2.3",0.0,0.0,995.3
"2024-01-17 02:39:00","-1.2","-2.3",0.0,0.0,995.3
"2024-01-17 02:40:00","-1.2","-2.3",0.0,0.0,995.3
"2024-01-17 02:41:00","-1.2","-2.3",0.0,0.0,995.3
"2024-01-17 02:42:00","-1.2","-2.3",0.0,0.0,995.3
"2024-01-17 02:43:00","-1.2","-2.3",0.0,0.0,995.2
"2024-01-17 02:44:00","-1.2","-2.3",0.0,0.0,995.2
"2024-01-17 02:45:00","-1.2","-2.3",0.0,0.0,995.1
"2024-01-17 02:46:00","-1.2","-2.3",0.0,0.0,995.1
"2024-01-17 02:47:00","-1.2","-2.3",0.0,0.0,995.1
"2024-01-17 02:48:00","-1.2","-2.3",0.0,0.0,995.0
"2024-01-17 02:49:00","-1.2","-2.3",0.0,0.0,995.0
"2024-01-17 02:50:00","-1.2","-2.3",0.0,0.0,995.0
"2024-01-17 02:51:00","-1.2","-2.3",0.0,0.0,995.0
"2024-01-17 02:52:00","-1.2","-2.3",0.0,0.0,995.0
"2024-01-17 02:53:00","-1.2","-2.3",0.0,0.0,994.9
"2024-01-17 02:54:00","-1.2","-2.3",0.0,0.0,994.9
"2024-01-17 02:55:00","-1.2","-2.3",0.0,0.0,994.8
"2024-01-17 02:56:00","-1.2","-2.3",0.0,0.0,994.9
"2024-01-17 02:57:00","-1.2","-2.3",0.0,0.0,994.9
"2024-01-17 02:58:00","-1.2","-2.3",0.0,0.0,994.8
"2024-01-17 02:59:00","-1.2","-2.3",0.0,0.0,994.8
"2024-01-17 03:00:00","-1.2","-2.3",0.0,0.0,994.8
"2024-01-17 03:01:00","-1.2","-2.3",0.0,0.0,994.8
"2024-01-17 03:02:00","-1.2","-2.3",0.0,0.0,994.8
"2024-01-17 03:03:00","-1.2","-2.3",0.0,0.0,994.7
"2024-01-17 03:04:00","-1.2","-2.3",0.0,0.0,994.7
"2024-01-17 03:05:00","-1.2","-2.3",0.0,0.0,994.6
"2024-01-17 03:06:00","-1.2","-2.3",0.0,0.0,994.6
"2024-01-17 03:07:00","-1.2","-2.3",0.0,0.0,994.6
"2024-01-17 03:08:00","-1.2","-2.3",0.0,0.0,994.6
"2024-01-17 03:09:00","-1.2","-2.3",0.0,0.0,994.5
"2024-01-17 03:10:00","-1.2","-2.3",0.0,0.0,994.5
"2024-01-17 03:11:00","-1.2","-2.3",0.0,0.0,994.5
"2024-01-17 03:12:00","-1.2","-2.3",0.0,0.0,994.5
"2024-01-17 03:13:00","-1.2","-2.3",0.0,0.0,994.4
"2024-01-17 03:14:00","-1.2","-2.3",0.0,0.0,994.3
"2024-01-17 03:15:00","-1.2","-2.3",0.0,0.0,994.3
"2024-01-17 03:16:00","-1.2","-2.3",0.0,0.0,994.3
"2024-01-17 03:17:00","-1.2","-2.3",0.0,0.0,994.3
"2024-01-17 03:18:00","-1.2","-2.3",0.0,0.0,994.3
"2024-01-17 03:19:00","-1.2","-2.3",0.0,0.0,994.3
"2024-01-17 03:20:00","-1.2","-2.3",0.0,0.0,994.3
"2024-01-17 03:21:00","-1.2","-2.3",0.0,0.0,994.3
"2024-01-17 03:22:00","-1.2","-2.3",0.0,0.0,994.2
"2024-01-17 03:23:00","-1.2","-2.3",0.0,0.0,994.3
"2024-01-17 03:24:00","-1.2","-2.3",0.0,0.0,994.3
"2024-01-17 03:25:00","-1.2","-2.3",0.0,0.0,994.2
"2024-01-17 03:26:00","-1.2","-2.3",0.0,0.0,994.2
"2024-01-17 03:27:00","-1.2","-2.3",0.0,0.0,994.2
"2024-01-17 03:28:00","-1.2","-2.3",0.0,0.0,994.2
"2024-01-17 03:29:00","-1.2","-2.3",0.0,0.0,994.2
"2024-01-17 03:30:00","-1.2","-2.3",0.0,0.0,994.1
"2024-01-17 03:31:00","-1.2","-2.3",0.0,0.0,994.1
"2024-01-17 03:32:00","-1.2","-2.3",0.0,0.0,994.1
"2024-01-17 03:33:00","-1.2","-2.3",0.0,0.0,994.1
"2024-01-17 03:34:00","-1.2","-2.3",0.0,0.0,994.1
"2024-01-17 03:35:00","-1.2","-2.3",0.0,0.0,994.0
"2024-01-17 03:36:00","-1.2","-2.3",0.0,0.0,994.0
"2024-01-17 03:37:00","-1.2","-2.3",0.0,0.0,994.0
"2024-01-17 03:38:00","-1.2","-2.3",0.0,0.0,993.9
"2024-01-17 03:39:00","-1.2","-2.3",0.0,0.0,993.9
"2024-01-17 03:40:00","-1.2","-2.3",0.0,0.0,993.9
"2024-01-17 03:41:00","-1.2","-2.3",0.0,0.0,993.9
"2024-01-17 03:42:00","-1.2","-2.3",0.0,0.0,993.9
"2024-01-17 03:43:00","-1.2","-2.3",0.0,0.0,993.8
"2024-01-17 03:44:00","-1.2","-2.3",0.0,0.0,993.8
"2024-01-17 03:45:00","-1.2","-2.3",0.0,0.0,993.8
"2024-01-17 03:46:00","-1.2","-2.3",0.0,0.0,993.8
"2024-01-17 03:47:00","-1.2","-2.3",0.0,0.0,993.8
"2024-01-17 03:48:00","-1.2","-2.3",0.0,0.0,993.8
"2024-01-17 03:49:00","-1.2","-2.3",0.0,0.0,993.7
"2024-01-17 03:50:00","-1.2","-2.3",0.0,0.0,993.7
"2024-01-17 03:51:00","-1.2","-2.3",0.0,0.0,993.7
"2024-01-17 03:52:00","-1.3","-2.4",0.0,0.0,993.6
"2024-01-17 03:53:00","-1.3","-2.4",0.0,0.0,993.6
"2024-01-17 03:54:00","-1.3","-2.4",0.0,0.0,993.6
"2024-01-17 03:55:00","-1.2","-2.3",0.0,0.0,993.6
"2024-01-17 03:56:00","-1.3","-2.4",0.0,0.0,993.6
"2024-01-17 03:57:00","-1.3","-2.4",0.0,0.0,993.5
"2024-01-17 03:58:00","-1.3","-2.4",0.0,0.0,993.5
"2024-01-17 03:59:00","-1.3","-2.4",0.0,0.0,993.5
"2024-01-17 04:00:00","-1.3","-2.4",0.0,0.0,993.5
"2024-01-17 04:01:00","-1.3","-2.4",0.0,0.0,993.4
"2024-01-17 04:02:00","-1.3","-2.4",0.0,0.0,993.4
"2024-01-17 04:03:00","-1.3","-2.4",0.0,0.0,993.4
"2024-01-17 04:04:00","-1.3","-2.4",0.0,0.0,993.3
"2024-01-17 04:05:00","-1.3","-2.4",0.0,0.0,993.3
"2024-01-17 04:06:00","-1.3","-2.4",0.0,0.0,993.3
"2024-01-17 04:07:00","-1.3","-2.4",0.0,0.0,993.3
"2024-01-17 04:08:00","-1.3","-2.4",0.0,0.0,993.3
"2024-01-17 04:09:00","-1.3","-2.4",0.0,0.0,993.3
"2024-01-17 04:10:00","-1.3","-2.4",0.0,0.0,993.3
"2024-01-17 04:11:00","-1.3","-2.4",0.0,0.0,993.3
"2024-01-17 04:12:00","-1.3","-2.4",0.0,0.0,993.3
"2024-01-17 04:13:00","-1.3","-2.4",0.0,0.0,993.2
"2024-01-17 04:14:00","-1.3","-2.4",0.0,0.0,993.2
"2024-01-17 04:15:00","-1.3","-2.4",0.0,0.0,993.2
"2024-01-17 04:16:00","-1.3","-2.4",0.0,0.0,993.2
"2024-01-17 04:17:00","-1.3","-2.4",0.0,0.0,993.2
"2024-01-17 04:18:00","-1.3","-2.4",0.0,0.0,993.2
"2024-01-17 04:19:00","-1.3","-2.4",0.0,0.0,993.1
"2024-01-17 04:20:00","-1.3","-2.4",0.0,0.0,993.1
"2024-01-17 04:21:00","-1.3","-2.4",0.0,0.0,993.1
"2024-01-17 04:22:00","-1.3","-2.4",0.0,0.0,993.1
"2024-01-17 04:23:00","-1.3","-2.4",0.0,0.0,993.0
"2024-01-17 04:24:00","-1.3","-2.4",0.0,0.0,993.0
"2024-01-17 04:25:00","-1.3","-2.4",0.0,0.0,993.0
"2024-01-17 04:26:00","-1.3","-2.4",0.0,0.0,993.0
"2024-01-17 04:27:00","-1.3","-2.4",0.0,0.0,992.9
"2024-01-17 04:28:00","-1.4","-2.5",0.0,0.0,993.0
"2024-01-17 04:29:00","-1.3","-2.4",0.0,0.0,992.9
"2024-01-17 04:30:00","-1.3","-2.4",0.0,0.0,992.9
"2024-01-17 04:31:00","-1.3","-2.4",0.0,0.0,992.9
"2024-01-17 04:32:00","-1.3","-2.4",0.0,0.0,992.9
"2024-01-17 04:33:00","-1.3","-2.4",0.0,0.0,992.9
"2024-01-17 04:34:00","-1.3","-2.4",0.0,0.0,992.9
"2024-01-17 04:35:00","-1.4","-2.5",0.0,0.0,992.8
"2024-01-17 04:36:00","-1.4","-2.5",0.0,0.0,992.8
"2024-01-17 04:37:00","-1.3","-2.4",0.0,0.0,992.8
"2024-01-17 04:38:00","-1.3","-2.4",0.0,0.0,992.8
"2024-01-17 04:39:00","-1.4","-2.5",0.0,0.0,992.8
"2024-01-17 04:40:00","-1.4","-2.5",0.0,0.0,992.8
"2024-01-17 04:41:00","-1.4","-2.5",0.0,0.0,992.8
"2024-01-17 04:42:00","-1.4","-2.5",0.0,0.0,992.8
"2024-01-17 04:43:00","-1.4","-2.5",0.0,0.0,992.8
"2024-01-17 04:44:00","-1.4","-2.5",0.0,0.0,992.8
"2024-01-17 04:45:00","-1.4","-2.5",0.0,0.0,992.7
"2024-01-17 04:46:00","-1.4","-2.5",0.0,0.0,992.7
"2024-01-17 04:47:00","-1.4","-2.5",0.0,0.0,992.7
"2024-01-17 04:48:00","-1.4","-2.5",0.0,0.0,992.6
"2024-01-17 04:49:00","-1.4","-2.5",0.0,0.0,992.6
"2024-01-17 04:50:00","-1.4","-2.5",0.0,0.0,992.6
"2024-01-17 04:51:00","-1.4","-2.5",0.0,0.0,992.6
"2024-01-17 04:52:00","-1.4","-2.5",0.0,0.0,992.5
"2024-01-17 04:53:00","-1.4","-2.5",0.0,0.0,992.6
"2024-01-17 04:54:00","-1.4","-2.5",0.0,0.0,992.6
"2024-01-17 04:55:00","-1.4","-2.7",0.0,0.0,992.6
"2024-01-17 04:56:00","-1.4","-2.5",0.0,0.0,992.5
"2024-01-17 04:57:00","-1.4","-2.5",0.0,0.0,992.5
"2024-01-17 04:58:00","-1.4","-2.5",0.0,0.0,992.5
"2024-01-17 04:59:00","-1.4","-2.7",0.0,0.0,992.5
"2024-01-17 05:00:00","-1.4","-2.5",0.0,0.0,992.4
"2024-01-17 05:01:00","-1.4","-2.5",0.0,0.0,992.3
"2024-01-17 05:02:00","-1.4","-2.5",0.0,0.0,992.3
"2024-01-17 05:03:00","-1.4","-2.5",0.0,0.0,992.3
"2024-01-17 05:04:00","-1.4","-2.5",0.0,0.0,992.3
"2024-01-17 05:05:00","-1.4","-2.7",0.0,0.0,992.2
"2024-01-17 05:06:00","-1.4","-2.5",0.0,0.0,992.3
"2024-01-17 05:07:00","-1.4","-2.5",0.0,0.0,992.2
"2024-01-17 05:08:00","-1.4","-2.5",0.0,0.0,992.2
"2024-01-17 05:09:00","-1.4","-2.7",0.0,0.0,992.2
"2024-01-17 05:10:00","-1.4","-2.5",0.0,0.0,992.2
"2024-01-17 05:11:00","-1.4","-2.7",0.0,0.0,992.1
"2024-01-17 05:12:00","-1.4","-2.5",0.0,0.0,992.2
"2024-01-17 05:13:00","-1.4","-2.7",0.0,0.0,992.1
"2024-01-17 05:14:00","-1.4","-2.7",0.0,0.0,992.0
"2024-01-17 05:15:00","-1.4","-2.7",0.0,0.0,992.1
"2024-01-17 05:16:00","-1.4","-2.7",0.0,0.0,992.1
"2024-01-17 05:17:00","-1.4","-2.7",0.0,0.0,992.1
"2024-01-17 05:18:00","-1.4","-2.7",0.0,0.0,992.1
"2024-01-17 05:19:00","-1.4","-2.7",0.0,0.0,992.1
"2024-01-17 05:20:00","-1.4","-2.7",0.0,0.0,992.0
"2024-01-17 05:21:00","-1.4","-2.7",0.0,0.0,992.1
"2024-01-17 05:22:00","-1.4","-2.7",0.0,0.0,992.0
"2024-01-17 05:23:00","-1.4","-2.7",0.0,0.0,992.0
"2024-01-17 05:24:00","-1.4","-2.7",0.0,0.0,992.0
"2024-01-17 05:25:00","-1.4","-2.7",0.0,0.0,991.9
"2024-01-17 05:26:00","-1.4","-2.7",0.0,0.0,992.0
"2024-01-17 05:27:00","-1.4","-2.7",0.0,0.0,991.9
"2024-01-17 05:28:00","-1.4","-2.7",0.0,0.0,991.9
"2024-01-17 05:29:00","-1.4","-2.7",0.0,0.0,991.9
"2024-01-17 05:30:00","-1.4","-2.7",0.0,0.0,991.8
"2024-01-17 05:31:00","-1.4","-2.7",0.0,0.0,991.8
"2024-01-17 05:32:00","-1.4","-2.7",0.0,0.0,991.7
"2024-01-17 05:33:00","-1.4","-2.7",0.0,0.0,991.8
"2024-01-17 05:34:00","-1.4","-2.7",0.0,0.0,991.7
"2024-01-17 05:35:00","-1.4","-2.7",0.0,0.0,991.7
"2024-01-17 05:36:00","-1.4","-2.7",0.0,0.0,991.7
"2024-01-17 05:37:00","-1.4","-2.7",0.0,0.0,991.7
"2024-01-17 05:38:00","-1.4","-2.7",0.0,0.0,991.7
"2024-01-17 05:39:00","-1.5","-2.8",0.0,0.0,991.7
"2024-01-17 05:40:00","-1.4","-2.7",0.0,0.0,991.7
"2024-01-17 05:41:00","-1.4","-2.7",0.0,0.0,991.6
"2024-01-17 05:42:00","-1.4","-2.7",0.0,0.0,991.6
"2024-01-17 05:43:00","-1.5","-2.8",0.0,0.0,991.6
"2024-01-17 05:44:00","-1.5","-2.8",0.0,0.0,991.6
"2024-01-17 05:45:00","-1.4","-2.7",0.0,0.0,991.6
"2024-01-17 05:46:00","-1.4","-2.7",0.0,0.0,991.6
"2024-01-17 05:47:00","-1.4","-2.7",0.0,0.0,991.6
"2024-01-17 05:48:00","-1.4","-2.7",0.0,0.0,991.6
"2024-01-17 05:49:00","-1.5","-2.8",0.0,0.0,991.6
"2024-01-17 05:50:00","-1.5","-2.8",0.0,0.0,991.6
"2024-01-17 05:51:00","-1.5","-2.8",0.0,0.0,991.5
"2024-01-17 05:52:00","-1.5","-2.8",0.0,0.0,991.5
"2024-01-17 05:53:00","-1.4","-2.7",0.0,0.0,991.5
"2024-01-17 05:54:00","-1.4","-2.7",0.0,0.0,991.5
"2024-01-17 05:55:00","-1.5","-2.8",0.0,0.0,991.5
"2024-01-17 05:56:00","-1.5","-2.8",0.0,0.0,991.4
"2024-01-17 05:57:00","-1.5","-2.8",0.0,0.0,991.5
"2024-01-17 05:58:00","-1.5","-2.6",0.0,0.0,991.4
"2024-01-17 05:59:00","-1.5","-2.8",0.0,0.0,991.4
"2024-01-17 06:00:00","-1.5","-2.8",0.0,0.0,991.5
"2024-01-17 06:01:00","-1.5","-2.6",0.0,0.0,991.4
"2024-01-17 06:02:00","-1.4","-2.7",0.0,0.0,991.4
"2024-01-17 06:03:00","-1.4","-2.7",0.0,0.0,991.4
"2024-01-17 06:04:00","-1.5","-2.8",0.0,0.0,991.4
"2024-01-17 06:05:00","-1.5","-2.6",0.0,0.0,991.4
"2024-01-17 06:06:00","-1.5","-2.8",0.0,0.0,991.4
"2024-01-17 06:07:00","-1.5","-2.8",0.0,0.0,991.4
"2024-01-17 06:08:00","-1.5","-2.6",0.0,0.0,991.4
"2024-01-17 06:09:00","-1.5","-2.8",0.0,0.0,991.4
"2024-01-17 06:10:00","-1.5","-2.6",0.0,0.0,991.4
"2024-01-17 06:11:00","-1.5","-2.8",0.0,0.0,991.4
"2024-01-17 06:12:00","-1.5","-2.6",0.0,0.0,991.3
"2024-01-17 06:13:00","-1.5","-2.6",0.0,0.0,991.3
"2024-01-17 06:14:00","-1.5","-2.8",0.0,0.0,991.3
"2024-01-17 06:15:00","-1.5","-2.8",0.0,0.0,991.3
"2024-01-17 06:16:00","-1.5","-2.8",0.0,0.0,991.3
"2024-01-17 06:17:00","-1.5","-2.6",0.0,0.0,991.3
"2024-01-17 06:18:00","-1.5","-2.8",0.0,0.0,991.3
"2024-01-17 06:19:00","-1.5","-2.8",0.0,0.0,991.2
"2024-01-17 06:20:00","-1.5","-2.6",0.0,0.0,991.2
"2024-01-17 06:21:00","-1.5","-2.8",0.0,0.0,991.1
"2024-01-17 06:22:00","-1.5","-2.8",0.0,0.0,991.1
"2024-01-17 06:23:00","-1.5","-2.8",0.0,0.0,991.1
"2024-01-17 06:24:00","-1.5","-2.6",0.0,0.0,991.1
"2024-01-17 06:25:00","-1.5","-2.8",0.0,0.0,991.1
"2024-01-17 06:26:00","-1.5","-2.8",0.0,0.0,991.1
"2024-01-17 06:27:00","-1.5","-2.8",0.0,0.0,991.1
"2024-01-17 06:28:00","-1.5","-2.6",0.0,0.0,991.0
"2024-01-17 06:29:00","-1.5","-2.8",0.0,0.0,991.0
"2024-01-17 06:30:00","-1.6","-2.9",0.0,0.0,991.1
"2024-01-17 06:31:00","-1.5","-2.8",0.0,0.0,991.0
"2024-01-17 06:32:00","-1.5","-2.6",0.0,0.0,991.0
"2024-01-17 06:33:00","-1.6","-2.9",0.0,0.0,991.0
"2024-01-17 06:34:00","-1.5","-2.8",0.0,0.0,991.0
"2024-01-17 06:35:00","-1.5","-2.8",0.0,0.0,991.0
"2024-01-17 06:36:00","-1.5","-2.8",0.0,0.0,991.0
"2024-01-17 06:37:00","-1.5","-2.8",0.0,0.0,991.0
"2024-01-17 06:38:00","-1.5","-2.8",0.0,0.0,991.0
"2024-01-17 06:39:00","-1.5","-2.8",0.0,0.0,990.9
"2024-01-17 06:40:00","-1.6","-2.9",0.0,0.0,990.9
"2024-01-17 06:41:00","-1.5","-2.6",0.0,0.0,990.9
"2024-01-17 06:42:00","-1.5","-2.8",0.0,0.0,990.9
"2024-01-17 06:43:00","-1.5","-2.8",0.0,0.0,990.9
"2024-01-17 06:44:00","-1.6","-2.7",0.0,0.0,990.9
"2024-01-17 06:45:00","-1.5","-2.8",0.0,0.0,990.9
"2024-01-17 06:46:00","-1.5","-2.8",0.0,0.0,990.9
"2024-01-17 06:47:00","-1.5","-2.8",0.0,0.0,990.9
"2024-01-17 06:48:00","-1.6","-2.9",0.0,0.0,990.9
"2024-01-17 06:49:00","-1.5","-2.8",0.0,0.0,990.8
"2024-01-17 06:50:00","-1.5","-2.8",0.0,0.0,990.9
"2024-01-17 06:51:00","-1.5","-2.8",0.0,0.0,990.8
"2024-01-17 06:52:00","-1.5","-2.8",0.0,0.0,990.9
"2024-01-17 06:53:00","-1.5","-2.8",0.0,0.0,990.9
"2024-01-17 06:54:00","-1.5","-2.8",0.0,0.0,990.9
"2024-01-17 06:55:00","-1.6","-2.9",0.0,0.0,990.9
"2024-01-17 06:56:00","-1.5","-2.8",0.0,0.0,990.8
"2024-01-17 06:57:00","-1.6","-2.9",0.0,0.0,990.8
"2024-01-17 06:58:00","-1.5","-2.8",0.0,0.0,990.8
"2024-01-17 06:59:00","-1.6","-2.9",0.0,0.0,990.8
"2024-01-17 07:00:00","-1.5","-2.8",0.0,0.0,990.8
"2024-01-17 07:01:00","-1.5","-2.8",0.0,0.0,990.8
"2024-01-17 07:02:00","-1.5","-2.8",0.0,0.0,990.8
"2024-01-17 07:03:00","-1.6","-2.9",0.0,0.0,990.8
"2024-01-17 07:04:00","-1.6","-2.9",0.0,0.0,990.8
"2024-01-17 07:05:00","-1.6","-2.9",0.0,0.0,990.8
"2024-01-17 07:06:00","-1.6","-2.9",0.0,0.0,990.8
"2024-01-17 07:07:00","-1.5","-2.8",0.0,0.0,990.7
"2024-01-17 07:08:00","-1.5","-2.8",0.0,0.0,990.7
"2024-01-17 07:09:00","-1.6","-2.9",0.0,0.0,990.7
"2024-01-17 07:10:00","-1.5","-2.8",0.0,0.0,990.8
"2024-01-17 07:11:00","-1.6","-2.9",0.0,0.0,990.7
"2024-01-17 07:12:00","-1.5","-2.8",0.0,0.0,990.7
"2024-01-17 07:13:00","-1.6","-2.7",0.0,0.0,990.7
"2024-01-17 07:14:00","-1.5","-2.6",0.0,0.0,990.7
"2024-01-17 07:15:00","-1.5","-2.8",0.0,0.0,990.7
"2024-01-17 07:16:00","-1.5","-2.6",0.0,0.0,990.7
"2024-01-17 07:17:00","-1.5","-2.8",0.0,0.0,990.7
"2024-01-17 07:18:00","-1.5","-2.8",0.0,0.0,990.7
"2024-01-17 07:19:00","-1.6","-2.9",0.0,0.0,990.7
"2024-01-17 07:20:00","-1.5","-2.8",0.0,0.0,990.7
"2024-01-17 07:21:00","-1.5","-2.8",0.0,0.0,990.7
"2024-01-17 07:22:00","-1.5","-2.8",0.0,0.0,990.7
"2024-01-17 07:23:00","-1.5","-2.8",0.0,0.0,990.7
"2024-01-17 07:24:00","-1.5","-2.8",0.0,0.0,990.7
"2024-01-17 07:25:00","-1.5","-2.8",0.0,0.0,990.7
"2024-01-17 07:26:00","-1.5","-2.8",0.0,0.0,990.7
"2024-01-17 07:27:00","-1.6","-2.9",0.0,0.0,990.7
"2024-01-17 07:28:00","-1.6","-2.9",0.0,0.0,990.7
"2024-01-17 07:29:00","-1.5","-2.8",0.0,0.0,990.7
"2024-01-17 07:30:00","-1.5","-2.8",0.0,0.0,990.8
"2024-01-17 07:31:00","-1.5","-2.8",0.0,0.0,990.7
"2024-01-17 07:32:00","-1.5","-2.8",0.0,0.0,990.7
"2024-01-17 07:33:00","-1.5","-2.8",0.0,0.0,990.7
"2024-01-17 07:34:00","-1.5","-2.8",0.0,0.0,990.6
"2024-01-17 07:35:00","-1.5","-2.8",0.0,0.0,990.7
"2024-01-17 07:36:00","-1.5","-2.8",0.0,0.0,990.6
"2024-01-17 07:37:00","-1.5","-2.6",0.0,0.0,990.6
"2024-01-17 07:38:00","-1.5","-2.6",0.0,0.0,990.6
"2024-01-17 07:39:00","-1.5","-2.8",0.0,0.0,990.6
"2024-01-17 07:40:00","-1.4","-2.7",0.0,0.0,990.6
"2024-01-17 07:41:00","-1.5","-2.6",0.0,0.0,990.5
"2024-01-17 07:42:00","-1.4","-2.5",0.0,0.0,990.6
"2024-01-17 07:43:00","-1.4","-2.5",0.0,0.0,990.6
"2024-01-17 07:44:00","-1.4","-2.5",0.0,0.0,990.6
"2024-01-17 07:45:00","-1.5","-2.6",0.0,0.0,990.5
"2024-01-17 07:46:00","-1.4","-2.5",0.0,0.0,990.5
"2024-01-17 07:47:00","-1.4","-2.5",0.0,0.0,990.5
"2024-01-17 07:48:00","-1.5","-2.6",0.0,0.0,990.5
"2024-01-17 07:49:00","-1.4","-2.5",0.0,0.0,990.5
"2024-01-17 07:50:00","-1.4","-2.5",0.0,0.0,990.5
"2024-01-17 07:51:00","-1.4","-2.5",0.0,0.0,990.5
"2024-01-17 07:52:00","-1.4","-2.5",0.0,0.0,990.5
"2024-01-17 07:53:00","-1.4","-2.5",0.0,0.0,990.5
"2024-01-17 07:54:00","-1.4","-2.5",0.0,0.0,990.5
"2024-01-17 07:55:00","-1.4","-2.5",0.0,0.0,990.5
"2024-01-17 07:56:00","-1.4","-2.5",0.0,0.0,990.5
"2024-01-17 07:57:00","-1.4","-2.5",0.0,0.0,990.4
"2024-01-17 07:58:00","-1.4","-2.5",0.0,0.0,990.4